GW2887 Weather Reports


time (UTC)temp
C
wind
direction
speed
KPH
gust
KPH
rain 1hr
cm
rain 24hr
cm
rain mn
cm
humidity
%
barometer
mb
20260506200039 -17 0.0 0.0 0.00 0.10 0.10 1009.7
20260506194527 -17 0.0 0.0 0.00 0.10 0.10 1009.7
20260506193027 -17 0.0 0.0 0.00 0.10 0.10 1009.6
20260506191518 -17 0.0 0.0 0.00 0.10 0.10 1009.5
20260506190015 -17 0.0 0.0 0.00 0.10 0.10 1009.4
20260506184515 -17 0.0 0.0 0.00 0.10 0.10 1009.3
20260506183015 -17 0.0 0.0 0.00 0.10 0.10 1009.3
20260506181517 -17 0.0 0.0 0.00 0.10 0.10 1009.3
20260506180016 -17 0.0 0.0 0.00 0.10 0.10 1009.3
20260506174503 -17 0.0 0.0 0.00 0.10 0.10 1009.3
20260506173112 -17 0.0 0.0 0.00 0.10 0.10 1009.3
20260506171600 -17 0.0 0.0 0.00 0.10 0.10 1009.2
20260506170059 -17 0.0 0.0 0.00 0.10 0.10 1009.1
20260506164605 -17 0.0 0.0 0.00 0.23 0.10 1009.1
20260506163044 -17 0.0 0.0 0.00 0.23 0.10 1009.0
20260506161538 -17 0.0 0.0 0.00 0.23 0.10 1009.0
20260506160033 -17 0.0 0.0 0.00 0.23 0.10 1008.9
20260506154529 -17 0.0 0.0 0.00 0.23 0.10 1008.7
20260506153024 -17 0.0 0.0 0.00 0.23 0.10 1008.7
20260506151520 -17 0.0 0.0 0.00 0.23 0.10 1008.6
20260506150017 -17 0.0 0.0 0.00 0.23 0.10 1008.6
20260506144511 -17 0.0 0.0 0.00 0.28 0.10 1008.5
20260506143007 -17 0.0 0.0 0.00 0.28 0.10 1008.4
20260506141503 -17 0.0 0.0 0.00 0.28 0.10 1008.4
20260506140058 -17 0.0 0.0 0.00 0.28 0.10 1008.4
20260506134554 -17 0.0 0.0 0.00 0.28 0.10 1008.4
20260506133055 -17 0.0 0.0 0.00 0.28 0.10 1008.2
20260506131545 -17 0.0 0.0 0.00 0.28 0.10 1008.1
20260506130040 -17 0.0 0.0 0.00 0.28 0.10 1008.2
20260506124539 -17 0.0 0.0 0.03 0.33 0.10 1008.2
20260506123039 -17 0.0 0.0 0.05 0.33 0.10 1008.1
20260506121527 -17 0.0 0.0 0.10 0.33 0.10 1008.1
20260506120034 -17 0.0 0.0 0.10 0.33 0.10 1008.0
20260506114525 2 134 3.2 0.0 0.08 0.33 0.08 87 1007.9
20260506113018 2 105 4.8 0.0 0.03 0.25 0.03 91 1007.6
20260506111515 2 105 1.6 0.0 0.00 0.23 0.00 93 1007.6
20260506110012 1 338 0.0 0.0 0.00 0.23 0.00 95 1007.5
20260506104508 1 326 0.0 0.0 0.00 0.23 0.00 96 1007.4
20260506103015 0 45 1.6 0.0 0.00 0.23 0.00 95 1007.3
20260506101505 0 13 3.2 0.0 0.00 0.23 0.00 95 1007.3
20260506100002 0 41 6.4 0.0 0.00 0.28 0.00 94 1007.2
20260506094558 -17 0.0 0.0 0.00 0.28 0.00 1007.0
20260506093054 -17 0.0 0.0 0.00 0.28 0.00 1006.9
20260506091549 -17 0.0 0.0 0.00 0.28 0.00 1006.6
20260506090045 -17 0.0 0.0 0.00 0.28 0.00 1006.5
20260506084540 -17 0.0 0.0 0.00 0.38 0.00 1006.4
20260506083042 -17 0.0 0.0 0.00 0.38 0.00 1006.3
20260506081531 -17 0.0 0.0 0.00 0.38 0.00 1006.2
20260506073018 -17 0.0 0.0 0.00 0.46 0.00 1005.9
20260506071514 -17 0.0 0.0 0.00 0.46 0.00 1005.8
20260506061602 -17 0.0 0.0 0.00 0.48 0.00 1005.4
20260506044537 -17 0.0 0.0 0.00 0.48 0.00 1004.8
20260506043026 -17 0.0 0.0 0.00 0.48 0.00 1004.7
20260506041521 -17 0.0 0.0 0.00 0.48 0.00 1004.6
20260506040017 -17 0.0 0.0 0.00 0.48 0.00 1004.5
20260506034513 -17 0.0 0.0 0.00 0.48 0.00 1004.3
20260506033008 -17 0.0 0.0 0.00 0.48 0.00 1004.3
20260506031505 -17 0.0 0.0 0.00 0.48 0.00 1004.1
20260506030114 -17 0.0 0.0 0.00 0.48 0.00 1004.0
20260506024555 -17 0.0 0.0 0.00 0.48 0.00 1003.9
20260506023051 -17 0.0 0.0 0.00 0.48 0.00 1003.8
20260506021546 -17 0.0 0.0 0.00 0.48 0.00 1003.8
20260506020041 -17 0.0 0.0 0.00 0.48 0.00 1003.7
20260506014538 -17 0.0 0.0 0.00 0.48 0.00 1003.6
20260506013040 -17 0.0 0.0 0.00 0.48 0.00 1003.5
20260506011529 -17 0.0 0.0 0.00 0.48 0.00 1003.3
20260506010024 -17 0.0 0.0 0.00 0.48 0.00 1003.3
20260506004520 -17 0.0 0.0 0.00 0.48 0.00 1003.2
20260506003016 -17 0.0 0.0 0.00 0.48 0.00 1003.1
20260506001512 -17 0.0 0.0 0.00 0.48 0.00 1003.2
20260506000006 -17 0.0 0.0 0.00 0.48 0.00 1002.9
20260505234502 -17 0.0 0.0 0.00 0.48 0.00 1002.9
20260505233058 -17 0.0 0.0 0.00 0.48 0.00 1002.9
20260505231554 -17 0.0 0.0 0.00 0.48 0.00 1002.8
20260505230051 -17 0.0 0.0 0.00 0.48 0.00 1002.8
20260505224545 -17 0.0 0.0 0.00 0.48 0.00 1002.8
20260505223057 -17 0.0 0.0 0.00 0.48 0.00 1002.7
20260505221544 -17 0.0 0.0 0.00 0.48 0.00 1002.6
20260505220032 -17 0.0 0.0 0.00 0.48 0.00 1002.7
20260505214530 -17 0.0 0.0 0.00 0.48 0.48 1002.6
20260505213023 -17 0.0 0.0 0.00 0.48 0.48 1002.4
20260505211519 -17 0.0 0.0 0.00 0.48 0.48 1002.5
20260505210017 -17 0.0 0.0 0.00 0.48 0.48 1002.4
20260505204517 -17 0.0 0.0 0.00 0.48 0.48 1002.3
20260505203005 -17 0.0 0.0 0.00 0.48 0.48 1002.3
20260505201501 -17 0.0 0.0 0.00 0.48 0.48 1002.2